RTW1004 VNLK-VNKT

Flight info

Callsign RTW1004
Flight time 0h 37m
Altitude 12500
Route 2731N08642E/N0171F160 DCT KIMTI KMTI1G
Aircraft C208/L-SDFGR/C

Departure

Time 2026-04-19 04:29
Airport Tenzing-Hillary Airport (VNLK)

Arrival

Time 2026-04-19 05:06
Airport Tribhuvan International Airport (VNKT)
Time Latitude Longitude Altitude Speed Heading
2026-04-19 04:20 27.68748 86.73200 9403 ft 0 kts 39°
2026-04-19 04:27 27.68759 86.73199 9396 ft 6 kts 320°
2026-04-19 04:27 27.68787 86.73157 9400 ft 2 kts 254°
2026-04-19 04:27 27.68786 86.73154 9399 ft 0 kts 236°
2026-04-19 04:28 27.68778 86.73141 9399 ft 18 kts 234°
2026-04-19 04:28 27.68535 86.72672 9169 ft 116 kts 240°
2026-04-19 04:28 27.68099 86.71838 9334 ft 129 kts 234°
2026-04-19 04:28 27.67516 86.71052 9597 ft 135 kts 228°
2026-04-19 04:29 27.66707 86.70576 9853 ft 132 kts 187°
2026-04-19 04:29 27.65769 86.70461 10007 ft 137 kts 188°
2026-04-19 04:29 27.64816 86.70315 10130 ft 140 kts 188°
2026-04-19 04:29 27.63839 86.70170 10248 ft 142 kts 188°
2026-04-19 04:30 27.62868 86.70028 10361 ft 143 kts 191°
2026-04-19 04:30 27.61965 86.69570 10469 ft 143 kts 210°
2026-04-19 04:30 27.61142 86.68953 10570 ft 143 kts 230°
2026-04-19 04:30 27.60729 86.67945 10677 ft 142 kts 249°
2026-04-19 04:31 27.60365 86.66920 10808 ft 142 kts 248°
2026-04-19 04:31 27.59992 86.65893 10930 ft 141 kts 248°
2026-04-19 04:31 27.59631 86.64887 11141 ft 136 kts 248°
2026-04-19 04:31 27.59290 86.63910 11379 ft 134 kts 248°
2026-04-19 04:32 27.58961 86.62914 11596 ft 136 kts 249°
2026-04-19 04:32 27.58640 86.61916 11762 ft 133 kts 248°
2026-04-19 04:32 27.58318 86.60957 11906 ft 133 kts 244°
2026-04-19 04:32 27.57685 86.60207 12028 ft 135 kts 217°
2026-04-19 04:33 27.56815 86.59773 12223 ft 139 kts 205°
2026-04-19 04:33 27.55918 86.59370 12428 ft 140 kts 206°
2026-04-19 04:33 27.55014 86.58963 12619 ft 139 kts 205°
2026-04-19 04:33 27.54109 86.58569 12811 ft 139 kts 204°
2026-04-19 04:34 27.53289 86.58092 12970 ft 126 kts 227°
2026-04-19 04:34 27.52997 86.57233 13157 ft 119 kts 266°
2026-04-19 04:34 27.53079 86.56298 13348 ft 121 kts 286°
2026-04-19 04:34 27.53302 86.55380 13562 ft 121 kts 284°
2026-04-19 04:35 27.53524 86.54459 13771 ft 122 kts 285°
2026-04-19 04:35 27.53746 86.53537 13968 ft 122 kts 285°
2026-04-19 04:35 27.53958 86.52628 14136 ft 121 kts 284°
2026-04-19 04:35 27.54178 86.51716 14325 ft 122 kts 285°
2026-04-19 04:36 27.54403 86.50784 14506 ft 125 kts 285°
2026-04-19 04:36 27.54630 86.49842 14678 ft 121 kts 285°
2026-04-19 04:36 27.54840 86.48927 14876 ft 123 kts 285°
2026-04-19 04:36 27.55021 86.47975 15052 ft 125 kts 270°
2026-04-19 04:37 27.54691 86.47067 15239 ft 127 kts 245°
2026-04-19 04:37 27.54260 86.46148 15362 ft 137 kts 246°
2026-04-19 04:37 27.53816 86.45175 15531 ft 142 kts 246°
2026-04-19 04:37 27.53353 86.44166 15723 ft 147 kts 246°
2026-04-19 04:38 27.52879 86.43145 15918 ft 147 kts 246°
2026-04-19 04:38 27.52402 86.42126 16109 ft 147 kts 246°
2026-04-19 04:38 27.51924 86.41114 16302 ft 146 kts 246°
2026-04-19 04:38 27.51440 86.40094 16501 ft 148 kts 246°
2026-04-19 04:39 27.50951 86.39069 16690 ft 148 kts 246°
2026-04-19 04:39 27.50461 86.38049 16887 ft 148 kts 246°
2026-04-19 04:39 27.50174 86.36975 17070 ft 144 kts 264°
2026-04-19 04:39 27.50045 86.35862 17270 ft 143 kts 266°
2026-04-19 04:40 27.49921 86.34752 17470 ft 143 kts 266°
2026-04-19 04:40 27.49791 86.33639 17662 ft 143 kts 266°
2026-04-19 04:40 27.49664 86.32540 17859 ft 141 kts 266°
2026-04-19 04:40 27.49535 86.31448 18067 ft 140 kts 266°
2026-04-19 04:41 27.49418 86.30362 18263 ft 139 kts 266°
2026-04-19 04:41 27.49303 86.29291 18455 ft 137 kts 267°
2026-04-19 04:41 27.49174 86.28231 18614 ft 136 kts 266°
2026-04-19 04:41 27.49048 86.27187 18788 ft 133 kts 266°
2026-04-19 04:42 27.48925 86.26162 18962 ft 131 kts 266°
2026-04-19 04:42 27.48802 86.25167 19136 ft 129 kts 266°
2026-04-19 04:42 27.48681 86.24169 19305 ft 128 kts 266°
2026-04-19 04:42 27.48553 86.23181 19487 ft 127 kts 266°
2026-04-19 04:43 27.48423 86.22207 19649 ft 121 kts 265°
2026-04-19 04:43 27.48304 86.21293 19829 ft 117 kts 265°
2026-04-19 04:43 27.48192 86.20379 20006 ft 118 kts 266°
2026-04-19 04:43 27.48069 86.19423 20065 ft 130 kts 266°
2026-04-19 04:44 27.48200 86.18408 20077 ft 137 kts 291°
2026-04-19 04:44 27.48576 86.17386 20068 ft 144 kts 292°
2026-04-19 04:44 27.48965 86.16323 20075 ft 149 kts 292°
2026-04-19 04:44 27.49363 86.15231 20068 ft 151 kts 292°
2026-04-19 04:45 27.49768 86.14124 20054 ft 154 kts 292°
2026-04-19 04:45 27.50174 86.13008 20052 ft 153 kts 292°
2026-04-19 04:45 27.50571 86.11902 20059 ft 153 kts 292°
2026-04-19 04:45 27.50975 86.10784 20059 ft 155 kts 292°
2026-04-19 04:46 27.51389 86.09649 20056 ft 158 kts 292°
2026-04-19 04:46 27.51801 86.08520 20058 ft 158 kts 292°
2026-04-19 04:46 27.52223 86.07364 20055 ft 161 kts 292°
2026-04-19 04:46 27.52644 86.06199 20054 ft 161 kts 292°
2026-04-19 04:47 27.53055 86.05043 20051 ft 158 kts 292°
2026-04-19 04:47 27.53459 86.03902 20049 ft 156 kts 292°
2026-04-19 04:47 27.53861 86.02760 20045 ft 157 kts 292°
2026-04-19 04:47 27.54263 86.01608 20042 ft 157 kts 291°
2026-04-19 04:48 27.54659 86.00463 20043 ft 156 kts 291°
2026-04-19 04:48 27.55051 85.99318 20043 ft 157 kts 291°
2026-04-19 04:48 27.55439 85.98172 20043 ft 156 kts 291°
2026-04-19 04:48 27.55824 85.97027 20042 ft 156 kts 291°
2026-04-19 04:49 27.56194 85.95871 20041 ft 157 kts 284°
2026-04-19 04:49 27.56044 85.94653 20048 ft 162 kts 253°
2026-04-19 04:49 27.55694 85.93455 20050 ft 160 kts 262°
2026-04-19 04:49 27.55583 85.92223 20049 ft 158 kts 276°
2026-04-19 04:50 27.55738 85.90987 20045 ft 160 kts 282°
2026-04-19 04:50 27.55952 85.89760 20043 ft 159 kts 283°
2026-04-19 04:50 27.56174 85.88531 19981 ft 163 kts 283°
2026-04-19 04:50 27.56400 85.87296 19864 ft 162 kts 283°
2026-04-19 04:51 27.56619 85.86064 19746 ft 159 kts 283°
2026-04-19 04:51 27.56846 85.84809 19363 ft 173 kts 283°
2026-04-19 04:51 27.57103 85.83418 18818 ft 187 kts 283°
2026-04-19 04:51 27.57369 85.81957 18273 ft 192 kts 283°
2026-04-19 04:52 27.57634 85.80475 17647 ft 194 kts 284°
2026-04-19 04:52 27.57900 85.78983 17025 ft 194 kts 283°
2026-04-19 04:52 27.58168 85.77490 16410 ft 194 kts 283°
2026-04-19 04:52 27.58436 85.75997 15823 ft 195 kts 283°
2026-04-19 04:53 27.58706 85.74510 15224 ft 190 kts 283°
2026-04-19 04:53 27.58958 85.73065 14648 ft 186 kts 283°
2026-04-19 04:53 27.59209 85.71652 14072 ft 183 kts 283°
2026-04-19 04:53 27.59459 85.70255 13463 ft 180 kts 283°
2026-04-19 04:54 27.59706 85.68875 12840 ft 179 kts 283°
2026-04-19 04:54 27.59952 85.67500 12230 ft 179 kts 283°
2026-04-19 04:54 27.60195 85.66139 11845 ft 171 kts 282°
2026-04-19 04:54 27.60413 85.64836 11842 ft 169 kts 282°
2026-04-19 04:55 27.60641 85.63553 11941 ft 164 kts 283°
2026-04-19 04:55 27.60860 85.62325 12035 ft 162 kts 282°
2026-04-19 04:55 27.61084 85.61060 12037 ft 166 kts 280°
2026-04-19 04:55 27.61025 85.59759 12041 ft 168 kts 262°
2026-04-19 04:56 27.61036 85.58459 12037 ft 166 kts 283°
2026-04-19 04:56 27.61304 85.57205 12036 ft 162 kts 285°
2026-04-19 04:56 27.61578 85.55969 12054 ft 164 kts 285°
2026-04-19 04:56 27.61865 85.54709 12052 ft 167 kts 285°
2026-04-19 04:57 27.62157 85.53440 12050 ft 168 kts 285°
2026-04-19 04:57 27.62448 85.52165 12053 ft 168 kts 285°
2026-04-19 04:57 27.62737 85.50896 12041 ft 168 kts 285°
2026-04-19 04:57 27.63035 85.49606 11995 ft 170 kts 285°
2026-04-19 04:58 27.63332 85.48317 11955 ft 171 kts 285°
2026-04-19 04:58 27.63637 85.47013 11785 ft 169 kts 286°
2026-04-19 04:58 27.64023 85.45810 11602 ft 159 kts 301°
2026-04-19 04:58 27.64755 85.44913 11420 ft 154 kts 317°
2026-04-19 04:59 27.65550 85.44146 11250 ft 148 kts 317°
2026-04-19 04:59 27.66204 85.43526 11226 ft 108 kts 316°
2026-04-19 04:59 27.66812 85.43045 11064 ft 109 kts 332°
2026-04-19 04:59 27.67582 85.43004 10892 ft 118 kts
2026-04-19 05:00 27.68296 85.43506 10714 ft 127 kts 41°
2026-04-19 05:00 27.68697 85.44405 10550 ft 132 kts 70°
2026-04-19 05:00 27.68948 85.45399 10391 ft 131 kts 69°
2026-04-19 05:00 27.69210 85.46403 10159 ft 135 kts 69°
2026-04-19 05:01 27.69658 85.47308 9914 ft 132 kts 41°
2026-04-19 05:01 27.70435 85.47801 9637 ft 127 kts
2026-04-19 05:01 27.71289 85.47747 9367 ft 122 kts 336°
2026-04-19 05:01 27.72034 85.47314 9091 ft 119 kts 328°
2026-04-19 05:02 27.72497 85.46986 8910 ft 118 kts 319°
2026-04-19 05:02 27.73106 85.46377 8637 ft 117 kts 316°
2026-04-19 05:02 27.73715 85.45770 8360 ft 117 kts 316°
2026-04-19 05:02 27.74209 85.45056 8092 ft 117 kts 291°
2026-04-19 05:03 27.74391 85.44172 7834 ft 115 kts 281°
2026-04-19 05:03 27.74569 85.43290 7568 ft 115 kts 282°
2026-04-19 05:03 27.74746 85.42404 7313 ft 116 kts 282°
2026-04-19 05:03 27.74924 85.41530 7126 ft 112 kts 282°
2026-04-19 05:04 27.75092 85.40705 7106 ft 105 kts 282°
2026-04-19 05:04 27.75237 85.39899 7108 ft 109 kts 272°
2026-04-19 05:04 27.75006 85.39090 7100 ft 113 kts 236°
2026-04-19 05:04 27.74374 85.38420 6663 ft 133 kts 222°
2026-04-19 05:05 27.73667 85.37736 6265 ft 131 kts 218°
2026-04-19 05:05 27.72857 85.37284 5763 ft 140 kts 203°
2026-04-19 05:05 27.71942 85.36878 4995 ft 137 kts 199°
2026-04-19 05:05 27.71078 85.36555 4520 ft 121 kts 203°
2026-04-19 05:06 27.70365 85.36236 4388 ft 100 kts 204°
2026-04-19 05:06 27.69820 85.35973 4356 ft 69 kts 203°
2026-04-19 05:06 27.69452 85.35806 4355 ft 36 kts 204°
2026-04-19 05:06 27.69179 85.35690 4346 ft 41 kts 199°
2026-04-19 05:07 27.69072 85.35620 4338 ft 11 kts 261°
2026-04-19 05:07 27.69103 85.35558 4341 ft 10 kts 341°
2026-04-19 05:07 27.69151 85.35564 4344 ft 0 kts 25°